[[{"header":{"parameterUnit":"m.s-1","parameterCategory":2,"la1":30.2991,"la2":30.254,"lo1":-89.0895,"lo2":-89.0444,"dy":0.0017,"dx":0.0017,"nx":28,"ny":28,"refTime":"2024-04-11T21:00:00:Z","depth":"0","parameterNumber":2,"parameterNumberName":"U-component_of_CURRENTS"},"data":[0,0,0,0,0,0,0,0,0,0,0,0,0,0,0,0,0,0,0,0,0,0,0,0,0,0,0,0,0,0,0,0,0,0,0,0,0,0,0,0,0,0,0,0,0,0,0,0,0,0,0,0,0,0,0,0,0,0,0.4537,0.4538,0,0.4621,0.4622,0.4623,0.4705,0.4705,0.4706,0.4707,0.4675,0.4673,0.4672,0,0,0,0,0,0,0,0,0,0,0,0,0,0.4468,0.4469,0.4537,0.4538,0.4539,0.4621,0.4622,0.4623,0.4704,0.4705,0.4706,0.4707,0.4676,0.4674,0.4672,0,0,0,0,0,0,0,0,0,0,0,0,0,0.4522,0.4469,0.4537,0.4588,0.4593,0.462,0.4622,0.4624,0.4704,0.4705,0.4707,0.4708,0.4676,0.4674,0.4671,0.463,0,0,0.4664,0.4663,0,0,0,0,0,0,0,0,0.4518,0.4524,0.4579,0.4584,0.459,0.4652,0.4586,0.4619,0.4704,0.4664,0.4707,0.4709,0.4654,0.4653,0.4671,0.4629,0.4628,0.4664,0.4662,0.4661,0.466,0,0,0,0,0,0,0,0.4515,0.4521,0.4573,0.458,0.4587,0.4613,0.4622,0.4593,0.465,0.4668,0.4673,0.4679,0.4657,0.4674,0.4671,0.4627,0.4664,0.4661,0.466,0.4659,0.4641,0.4642,0,0,0,0,0,0,0.4497,0.4518,0.457,0.4575,0.4554,0.4613,0.4623,0.4632,0.4654,0.4658,0.4677,0.4682,0.4677,0.4673,0.467,0.4688,0.4661,0.4659,0.4657,0.464,0.4642,0.4643,0,0,0,0,0,0,0.4496,0.4501,0.4567,0.4546,0.4556,0.4612,0.4622,0.4633,0.4658,0.4662,0.4665,0.4691,0.4678,0.4673,0.4667,0.4684,0.4658,0.4655,0.4639,0.4641,0.4642,0.468,0,0,0,0,0,0,0.4493,0.45,0.4498,0.4545,0.4557,0.4588,0.4621,0.4634,0.4657,0.4665,0.4673,0.4672,0.4679,0.4671,0.4664,0.468,0.4653,0.4638,0.464,0.4642,0.4678,0.4683,0.4687,0,0,0,0,0,0.4491,0.4473,0.4497,0.4503,0.4552,0.4588,0.4597,0.4642,0.4656,0.4668,0.4684,0.4673,0.4679,0.4669,0.4661,0.4677,0.4637,0.4639,0.4641,0.4676,0.4682,0.4687,0,0,0,0,0,0,0.4411,0.4481,0.4508,0.4505,0.4549,0.4601,0.4607,0.4636,0.466,0.4662,0.467,0.467,0.4673,0.4665,0.4654,0.4681,0.4661,0.4662,0.469,0.4695,0.47,0.4731,0.4651,0,0,0,0,0,0.4398,0.442,0.4482,0.4474,0.45,0.4553,0.457,0.4605,0.4632,0.4646,0.4658,0.4668,0.4675,0.4677,0.4675,0.4673,0.4711,0.4685,0.4689,0.4693,0.4715,0.4789,0.4803,0.465,0.465,0.465,0,0,0.4349,0.4399,0.44,0.4462,0.4499,0.4535,0.4568,0.4594,0.4626,0.463,0.4663,0.467,0.4675,0.4694,0.4695,0.469,0.4758,0.4696,0.47,0.472,0.4793,0.4808,0.4821,0.4652,0.4651,0.4651,0,0,0.429,0.4326,0.4343,0.4392,0.4461,0.4503,0.451,0.4574,0.4612,0.4634,0.466,0.4692,0.468,0.4724,0.4733,0.4757,0.4774,0.4743,0.4798,0.4868,0.4882,0.4895,0.4972,0.4991,0.4755,0.4755,0.4755,0,0.4235,0.4281,0.4343,0.4388,0.4427,0.4489,0.4519,0.456,0.4613,0.4653,0.4644,0.4708,0.4707,0.4769,0.4791,0.477,0.4812,0.4773,0.4877,0.489,0.4902,0.4978,0.4998,0.4757,0.4757,0.4756,0.4756,0,0.4217,0.4258,0.4268,0.4363,0.4402,0.4436,0.4513,0.4556,0.4597,0.4653,0.4719,0.4745,0.4797,0.48,0.48,0.4891,0.4894,0.4867,0.4864,0.492,0.4996,0.5017,0.476,0.4759,0.4758,0.4758,0,0,0.4104,0.4235,0.4242,0.4306,0.4405,0.4443,0.4496,0.4589,0.4654,0.4703,0.4797,0.4828,0.487,0.4886,0.4905,0.4973,0.5094,0.4962,0.4965,0.5044,0.5264,0.5136,0.5146,0.5083,0.5087,0.5089,0.5286,0,0.4087,0.4174,0.4235,0.4307,0.4372,0.4454,0.4505,0.4591,0.4671,0.4774,0.4844,0.4921,0.4894,0.4939,0.5,0.508,0.5149,0.5044,0.5194,0.52,0.5083,0.5165,0.4921,0.5064,0.5306,0.531,0.5312,0,0.4084,0.4154,0.4227,0.4352,0.4381,0.4419,0.4555,0.4609,0.4757,0.4824,0.4925,0.499,0.512,0.5074,0.5246,0.518,0.5227,0.5276,0.5284,0.5168,0.5109,0.5045,0.5092,0.5002,0.5344,0.5342,0.534,0,0.4061,0.4159,0.4228,0.4271,0.4398,0.4441,0.4498,0.4629,0.4718,0.488,0.4985,0.5105,0.5214,0.5285,0.5384,0.533,0.5572,0.5504,0.5436,0.5429,0.5253,0.5222,0.5231,0.5618,0.5618,0.5617,0.5617,0,0.4079,0.4135,0.4224,0.4281,0.4352,0.4431,0.4534,0.4616,0.4769,0.489,0.5014,0.5148,0.5275,0.5421,0.5454,0.5526,0.5628,0.5476,0.5476,0.5256,0.5225,0.516,0.5116,0.5625,0.5623,0.5622,0.562,0,0.4089,0.4144,0.4235,0.4338,0.4364,0.4421,0.4554,0.4637,0.478,0.4953,0.5019,0.5245,0.54,0.5515,0.5672,0.5628,0.554,0.5688,0.5425,0.5386,0.5147,0.5112,0.4946,0.4808,0.5629,0.5627,0.5625,0,0.4114,0.4164,0.4266,0.4304,0.4356,0.4441,0.4499,0.463,0.472,0.4998,0.5079,0.5312,0.5421,0.5619,0.5594,0.5636,0.5493,0.5423,0.5245,0.5126,0.5092,0.4897,0.478,0.5053,0.5047,0.5042,0.5038,0,0.4166,0.4196,0.4269,0.4325,0.4383,0.4451,0.4537,0.4604,0.4762,0.4899,0.5083,0.5203,0.5387,0.5311,0.5367,0.5354,0.5139,0.5314,0.5268,0.4706,0.4423,0.4291,0.4957,0.4993,0.4997,0.5,0.5003,0.5005,0.4191,0.4226,0.4289,0.4323,0.4379,0.4404,0.439,0.4493,0.4581,0.4669,0.491,0.4948,0.5019,0.5037,0.5017,0.4833,0.4828,0.4663,0.4662,0.4502,0.4242,0.4804,0.4773,0.4776,0.4778,0.4781,0.4783,0,0.4171,0.42,0.4266,0.4271,0.4251,0.4313,0.4352,0.4281,0.4264,0.4418,0.4488,0.4486,0.4423,0.4465,0.439,0.4237,0.4037,0.4128,0.3831,0.3772,0.4359,0.4206,0.3953,0.3954,0.3954,0.3954,0.3954,0.3954,0.4166,0.4173,0.4172,0.4095,0.4089,0.3973,0.3935,0.3877,0.39,0.3825,0.3785,0.3857,0.4052,0.4085,0.3949,0.3849,0.3602,0.338,0.3447,0.3911,0.3961,0.4009,0.3856,0.3534,0.3534,0.2664,0.2658,0.2653]},{"header":{"parameterUnit":"m.s-1","parameterCategory":2,"la1":30.2991,"la2":30.254,"lo1":-89.0895,"lo2":-89.0444,"dy":0.0017,"dx":0.0017,"nx":28,"ny":28,"refTime":"2024-04-11T21:00:00:Z","depth":"0","parameterNumber":3,"parameterNumberName":"V-component_of_CURRENTS"},"data":[0,0,0,0,0,0,0,0,0,0,0,0,0,0,0,0,0,0,0,0,0,0,0,0,0,0,0,0,0,0,0,0,0,0,0,0,0,0,0,0,0,0,0,0,0,0,0,0,0,0,0,0,0,0,0,0,0,0,-0.044,-0.044,0,-0.0497,-0.0498,-0.05,-0.0566,-0.0566,-0.0566,-0.0567,-0.0609,-0.061,-0.0611,0,0,0,0,0,0,0,0,0,0,0,0,0,-0.0436,-0.0436,-0.044,-0.044,-0.044,-0.0497,-0.0498,-0.05,-0.0566,-0.0566,-0.0567,-0.0567,-0.0609,-0.061,-0.0611,0,0,0,0,0,0,0,0,0,0,0,0,0,-0.0467,-0.0436,-0.044,-0.0474,-0.0477,-0.0496,-0.0498,-0.05,-0.0566,-0.0566,-0.0567,-0.0567,-0.0609,-0.061,-0.0611,-0.061,0,0,-0.0615,-0.0616,0,0,0,0,0,0,0,0,-0.0465,-0.0468,-0.0469,-0.0471,-0.0475,-0.0518,-0.0512,-0.0534,-0.0566,-0.054,-0.0567,-0.0567,-0.0572,-0.0576,-0.0597,-0.0612,-0.0614,-0.0615,-0.0616,-0.0616,-0.0617,0,0,0,0,0,0,0,-0.0463,-0.0466,-0.047,-0.0469,-0.0472,-0.0502,-0.0508,-0.0517,-0.0559,-0.0542,-0.0545,-0.0539,-0.0575,-0.0596,-0.0599,-0.0615,-0.0615,-0.0616,-0.0617,-0.0617,-0.0633,-0.0632,0,0,0,0,0,0,-0.0437,-0.0464,-0.0468,-0.0471,-0.0462,-0.0501,-0.0508,-0.051,-0.0559,-0.0565,-0.0539,-0.0542,-0.0594,-0.0597,-0.06,-0.0569,-0.0616,-0.0618,-0.0618,-0.0633,-0.0633,-0.0632,0,0,0,0,0,0,-0.0437,-0.0437,-0.0466,-0.0462,-0.0467,-0.05,-0.0503,-0.0511,-0.0525,-0.0555,-0.0562,-0.0542,-0.0594,-0.0598,-0.0598,-0.0573,-0.0618,-0.0619,-0.0633,-0.0633,-0.0632,-0.0528,0,0,0,0,0,0,-0.0437,-0.0437,-0.0435,-0.046,-0.0466,-0.0463,-0.0502,-0.0511,-0.0517,-0.0522,-0.056,-0.0565,-0.0595,-0.0596,-0.06,-0.0575,-0.062,-0.0634,-0.0633,-0.0633,-0.0532,-0.0524,-0.0517,0,0,0,0,0,-0.0437,-0.041,-0.0435,-0.0435,-0.046,-0.0461,-0.0467,-0.0498,-0.0516,-0.0515,-0.0541,-0.0564,-0.0595,-0.0596,-0.0601,-0.0576,-0.0634,-0.0633,-0.0633,-0.0535,-0.0526,-0.0517,0,0,0,0,0,0,-0.0384,-0.0415,-0.0442,-0.0422,-0.0439,-0.0469,-0.0457,-0.0487,-0.051,-0.0512,-0.0552,-0.0558,-0.0555,-0.0581,-0.0582,-0.0583,-0.0621,-0.0621,-0.0546,-0.0537,-0.053,-0.0477,-0.0621,0,0,0,0,0,-0.0376,-0.0375,-0.0407,-0.0385,-0.0391,-0.0428,-0.0433,-0.0457,-0.0475,-0.0488,-0.0516,-0.0543,-0.0557,-0.0557,-0.0583,-0.057,-0.0565,-0.0562,-0.0554,-0.0548,-0.0511,-0.0491,-0.0477,-0.0629,-0.063,-0.063,0,0,-0.0337,-0.0359,-0.0352,-0.0376,-0.039,-0.0373,-0.0433,-0.0427,-0.0407,-0.0485,-0.0468,-0.0518,-0.0551,-0.0546,-0.0546,-0.056,-0.0503,-0.0547,-0.054,-0.0506,-0.0488,-0.0473,-0.0459,-0.0629,-0.0629,-0.0629,0,0,-0.0253,-0.0289,-0.0262,-0.0279,-0.03,-0.0322,-0.0315,-0.0352,-0.0365,-0.0365,-0.0415,-0.0439,-0.0467,-0.0482,-0.0491,-0.0454,-0.0471,-0.0478,-0.0385,-0.0367,-0.0353,-0.034,-0.031,-0.0296,-0.0466,-0.0466,-0.0466,0,-0.0207,-0.0191,-0.0248,-0.0231,-0.022,-0.0289,-0.0246,-0.0265,-0.0298,-0.0287,-0.0341,-0.0376,-0.0426,-0.0388,-0.0395,-0.0431,-0.0422,-0.0412,-0.0352,-0.034,-0.0329,-0.0301,-0.0287,-0.0461,-0.0462,-0.0462,-0.0463,0,-0.0115,-0.0105,-0.0081,-0.0088,-0.0085,-0.0062,-0.0092,-0.0096,-0.013,-0.0152,-0.0147,-0.0226,-0.0242,-0.0277,-0.0327,-0.0277,-0.0297,-0.0349,-0.0364,-0.0307,-0.0282,-0.0269,-0.0454,-0.0455,-0.0457,-0.0458,0,0,-0.0003,-0.0015,-0.0007,0.0009,-0.0015,0.0005,0.0044,0.0063,0.0107,0.004,0.0102,0.0022,-0.0042,-0.0058,-0.0135,-0.0131,-0.0078,-0.0203,-0.0205,-0.0151,-0.0019,-0.0069,-0.006,-0.012,-0.0118,-0.0115,-0.003,0,0.0087,0.0146,0.0121,0.0201,0.0228,0.0187,0.024,0.0244,0.0224,0.0257,0.0185,0.0194,0.0051,0.0037,0.0016,-0.0053,-0.0039,-0.0095,-0.01,-0.0099,-0.0133,-0.0045,-0.0061,0.001,-0.0017,-0.0015,-0.0014,0,0.0173,0.02,0.0282,0.0331,0.0348,0.0394,0.0458,0.0491,0.0511,0.0498,0.0479,0.041,0.0395,0.026,0.0208,0.0178,0.0097,0.0039,0.004,-0.0025,-0.0123,-0.0055,0.0035,-0.0168,0.0006,0.0005,0.0003,0,0.0249,0.0314,0.0385,0.0395,0.0441,0.0498,0.0539,0.057,0.0627,0.0657,0.0698,0.0642,0.064,0.0532,0.036,0.0298,0.0319,0.0216,0.0112,0.0108,0.0087,0.0076,0.0002,0.0214,0.0214,0.0213,0.0213,0,0.0326,0.0384,0.043,0.0462,0.0587,0.0591,0.072,0.0746,0.0817,0.0927,0.0825,0.09,0.0707,0.0663,0.0481,0.0354,0.0412,0.0173,0.0141,0.0119,0.011,-0.0078,-0.0197,0.0217,0.0216,0.0215,0.0215,0,0.0376,0.0398,0.0484,0.0569,0.0613,0.07,0.0837,0.0933,0.0978,0.1122,0.1147,0.1131,0.107,0.0872,0.0731,0.0535,0.0287,0.0338,0.0328,0.0291,-0.0041,-0.0153,-0.0229,-0.0317,0.0248,0.0248,0.0247,0,0.0401,0.0445,0.056,0.0642,0.0689,0.0818,0.0926,0.1005,0.1117,0.1273,0.137,0.136,0.1385,0.1156,0.0809,0.0539,0.0317,0.0336,0.0193,-0.0018,-0.0167,-0.026,-0.0336,0.0214,0.0213,0.0212,0.0212,0,0.0464,0.0499,0.058,0.0735,0.0864,0.1002,0.1163,0.1275,0.1403,0.1544,0.1728,0.1772,0.1543,0.1264,0.0862,0.0641,0.0176,0.0313,0.0109,-0.017,-0.0284,-0.0398,0.0116,0.0207,0.0207,0.0208,0.0208,0.0208,0.0529,0.0598,0.071,0.0861,0.1004,0.1181,0.1312,0.1497,0.1708,0.1935,0.1979,0.2095,0.1669,0.1111,0.0775,0.0138,0.0131,-0.0076,-0.0178,-0.024,-0.0377,0.0129,0.0154,0.0154,0.0154,0.0154,0.0154,0,0.0626,0.0707,0.0841,0.1022,0.1175,0.1232,0.1473,0.1619,0.1882,0.2108,0.2269,0.2157,0.1616,0.1039,0.0185,-0.0268,-0.0437,-0.0508,-0.0647,-0.0691,-0.0216,-0.0275,-0.0359,-0.0359,-0.0359,-0.0358,-0.0358,-0.0358,0.0691,0.0828,0.0884,0.1136,0.1261,0.147,0.1603,0.1828,0.2026,0.2304,0.2409,0.2457,0.2052,0.055,-0.0485,-0.0726,-0.1018,-0.1097,-0.123,-0.0937,-0.0906,-0.0876,-0.096,-0.1186,-0.1187,-0.1667,-0.1672,-0.1676]}],[{"header":{"parameterUnit":"m.s-1","parameterCategory":2,"la1":30.2991,"la2":30.254,"lo1":-89.0895,"lo2":-89.0444,"dy":0.0017,"dx":0.0017,"nx":28,"ny":28,"refTime":"2024-04-11T21:00:00:Z","depth":"2","parameterNumber":2,"parameterNumberName":"U-component_of_CURRENTS"},"data":[0,0,0,0,0,0,0,0,0,0,0,0,0,0,0,0,0,0,0,0,0,0,0,0,0,0,0,0,0,0,0,0,0,0,0,0,0,0,0,0,0,0,0,0,0,0,0,0,0,0,0,0,0,0,0,0,0,0,0.3278,0.3279,0,0.328,0.3279,0.3278,0.3271,0.3272,0.3272,0.3273,0.3327,0.3327,0.3328,0,0,0,0,0,0,0,0,0,0,0,0,0,0.3178,0.318,0.3278,0.3279,0.328,0.328,0.3279,0.3278,0.3271,0.3272,0.3273,0.3274,0.3326,0.3327,0.3328,0,0,0,0,0,0,0,0,0,0,0,0,0,0.3195,0.318,0.3278,0.3284,0.3286,0.328,0.3279,0.3278,0.3271,0.3272,0.3273,0.3274,0.3326,0.3327,0.3328,0.3311,0,0,0.3331,0.3332,0,0,0,0,0,0,0,0,0.3194,0.3197,0.3282,0.3284,0.3286,0.3286,0.3264,0.3295,0.327,0.3265,0.3273,0.3275,0.3324,0.3325,0.3307,0.3314,0.3316,0.3332,0.3332,0.3333,0.3333,0,0,0,0,0,0,0,0.3193,0.3197,0.3268,0.3284,0.3286,0.3257,0.326,0.3268,0.3281,0.3265,0.3268,0.3285,0.3324,0.3306,0.3309,0.3317,0.3332,0.3332,0.3333,0.3334,0.3403,0.3404,0,0,0,0,0,0,0.3218,0.3196,0.3268,0.3269,0.3254,0.3259,0.3262,0.3276,0.3279,0.3284,0.3284,0.3285,0.3303,0.3307,0.3311,0.3397,0.3333,0.3334,0.3334,0.3402,0.3403,0.3405,0,0,0,0,0,0,0.3216,0.3224,0.3268,0.3241,0.3246,0.3262,0.3276,0.3275,0.3287,0.3295,0.3298,0.3301,0.3304,0.3309,0.3347,0.3396,0.3334,0.3335,0.3401,0.3402,0.3404,0.3503,0,0,0,0,0,0,0.3213,0.3223,0.3223,0.3243,0.3249,0.3289,0.3276,0.3275,0.3299,0.3301,0.331,0.3314,0.3306,0.3345,0.3348,0.3396,0.3336,0.3399,0.3401,0.3404,0.3499,0.3508,0.3517,0,0,0,0,0,0.3209,0.3206,0.3223,0.3232,0.3255,0.3291,0.329,0.3296,0.33,0.3308,0.332,0.3315,0.3362,0.3347,0.335,0.34,0.3398,0.3401,0.3403,0.3494,0.3506,0.3516,0,0,0,0,0,0,0.3142,0.3207,0.3226,0.3237,0.3278,0.3294,0.3298,0.3312,0.3322,0.3328,0.3329,0.3334,0.3387,0.3372,0.3356,0.3423,0.338,0.3383,0.3448,0.3459,0.3468,0.3439,0.3337,0,0,0,0,0,0.3137,0.317,0.322,0.3236,0.3257,0.3284,0.3294,0.3313,0.3334,0.3339,0.3349,0.3362,0.3392,0.341,0.342,0.3455,0.346,0.3488,0.3497,0.3505,0.3481,0.3562,0.3577,0.3414,0.3414,0.3414,0,0,0.3115,0.316,0.3174,0.3228,0.3253,0.3279,0.3291,0.3327,0.3353,0.3345,0.3372,0.3397,0.3408,0.3452,0.3474,0.3452,0.3555,0.3508,0.3515,0.3487,0.3567,0.3583,0.3597,0.3416,0.3415,0.3415,0,0,0.3096,0.3135,0.3154,0.32,0.3266,0.3284,0.3308,0.3346,0.3368,0.3407,0.3418,0.3461,0.3491,0.351,0.3525,0.3585,0.3602,0.3608,0.3635,0.3716,0.373,0.3743,0.3781,0.3796,0.3613,0.3613,0.3613,0,0.307,0.3113,0.3162,0.3201,0.3244,0.3295,0.3326,0.335,0.3395,0.3435,0.3429,0.3515,0.351,0.3595,0.36,0.3606,0.3649,0.36,0.3731,0.3743,0.3754,0.379,0.3805,0.3618,0.3618,0.3617,0.3617,0,0.3076,0.3115,0.3137,0.321,0.3244,0.3297,0.3353,0.3392,0.3432,0.3471,0.3571,0.3584,0.365,0.3656,0.3634,0.373,0.3734,0.374,0.3708,0.3777,0.381,0.3824,0.3626,0.3624,0.3622,0.3621,0,0,0.3034,0.3124,0.3139,0.318,0.3273,0.3305,0.3362,0.3444,0.3514,0.3562,0.3652,0.369,0.3743,0.3759,0.3782,0.3808,0.3905,0.3802,0.3805,0.3847,0.4081,0.3973,0.3978,0.3967,0.397,0.3972,0.4076,0,0.3042,0.3095,0.3153,0.3217,0.3249,0.3338,0.3392,0.3471,0.3554,0.3645,0.3708,0.3786,0.3782,0.3829,0.3881,0.3902,0.3947,0.3874,0.3998,0.3999,0.3903,0.3992,0.3686,0.3744,0.409,0.4092,0.4094,0,0.3047,0.3085,0.3137,0.3243,0.3271,0.3328,0.3465,0.3522,0.3661,0.3728,0.3855,0.3911,0.3991,0.3953,0.4083,0.4058,0.407,0.4062,0.4068,0.3931,0.3918,0.3727,0.3757,0.4118,0.4116,0.4114,0.4113,0,0.3,0.3091,0.3135,0.3176,0.3282,0.3353,0.3425,0.3562,0.3638,0.3792,0.3873,0.4018,0.4102,0.4156,0.4177,0.4154,0.428,0.4262,0.4178,0.417,0.3905,0.3868,0.4332,0.4332,0.4331,0.4331,0.4331,0,0.3006,0.3052,0.313,0.3168,0.326,0.3335,0.3472,0.3568,0.3706,0.3806,0.3936,0.4034,0.4159,0.4254,0.4239,0.4271,0.4373,0.4182,0.4198,0.3929,0.3895,0.4202,0.4186,0.4335,0.4334,0.4333,0.4333,0,0.2967,0.3019,0.3089,0.3203,0.3247,0.3321,0.349,0.3579,0.3715,0.385,0.389,0.4087,0.4206,0.43,0.438,0.4359,0.4358,0.4334,0.3986,0.3957,0.4172,0.416,0.4257,0.4254,0.4252,0.425,0.4249,0,0.2969,0.2986,0.31,0.3152,0.3229,0.3341,0.3422,0.3572,0.3659,0.3859,0.3908,0.408,0.4171,0.4288,0.426,0.4262,0.4329,0.3961,0.3828,0.4162,0.417,0.4161,0.4152,0.3526,0.3518,0.3512,0.3507,0,0.2973,0.3012,0.3054,0.3133,0.324,0.3319,0.3444,0.349,0.3646,0.3732,0.383,0.3896,0.4064,0.3939,0.3981,0.3924,0.3934,0.3835,0.432,0.3584,0.3479,0.3484,0.3498,0.3453,0.3459,0.3463,0.3465,0.3468,0.2995,0.3022,0.3063,0.3121,0.3211,0.3246,0.3242,0.3339,0.3386,0.3434,0.3621,0.3618,0.3696,0.3589,0.3475,0.3404,0.3661,0.3483,0.35,0.3523,0.3412,0.3308,0.3228,0.3231,0.3235,0.3238,0.3241,0,0.2994,0.3013,0.3048,0.3104,0.3087,0.3168,0.3201,0.3118,0.3066,0.3193,0.3226,0.3003,0.2947,0.3014,0.2831,0.2827,0.2781,0.2698,0.2609,0.2667,0.2718,0.2562,0.2154,0.215,0.2146,0.2143,0,0,0.3011,0.2999,0.2963,0.2917,0.294,0.2859,0.2802,0.27,0.2702,0.2607,0.2595,0.2831,0.2951,0.2516,0.2462,0.2273,0.2443,0.2185,0.3069,0.3025,0.307,0.3198,0.3028,0,0,0,0,0]},{"header":{"parameterUnit":"m.s-1","parameterCategory":2,"la1":30.2991,"la2":30.254,"lo1":-89.0895,"lo2":-89.0444,"dy":0.0017,"dx":0.0017,"nx":28,"ny":28,"refTime":"2024-04-11T21:00:00:Z","depth":"2","parameterNumber":3,"parameterNumberName":"V-component_of_CURRENTS"},"data":[0,0,0,0,0,0,0,0,0,0,0,0,0,0,0,0,0,0,0,0,0,0,0,0,0,0,0,0,0,0,0,0,0,0,0,0,0,0,0,0,0,0,0,0,0,0,0,0,0,0,0,0,0,0,0,0,0,0,0.0184,0.0184,0,0.0171,0.0171,0.0171,0.0149,0.0149,0.0148,0.0148,0.0065,0.0063,0.0061,0,0,0,0,0,0,0,0,0,0,0,0,0,0.0184,0.0184,0.0184,0.0183,0.0183,0.0171,0.0171,0.0171,0.0149,0.0149,0.0148,0.0148,0.0066,0.0063,0.0061,0,0,0,0,0,0,0,0,0,0,0,0,0,0.0179,0.0184,0.0184,0.0171,0.017,0.0171,0.0171,0.0171,0.0149,0.0148,0.0148,0.0147,0.0066,0.0064,0.0061,0.0057,0,0,0.0053,0.0052,0,0,0,0,0,0,0,0,0.0179,0.0179,0.0173,0.0172,0.017,0.0161,0.0141,0.0129,0.0149,0.0157,0.0148,0.0147,0.0091,0.0086,0.0086,0.0053,0.0049,0.0052,0.0051,0.005,0.0049,0,0,0,0,0,0,0,0.018,0.0179,0.0179,0.0173,0.0171,0.0164,0.0163,0.0139,0.0126,0.0156,0.0155,0.0153,0.009,0.0089,0.0084,0.0048,0.0053,0.005,0.0048,0.0047,0.0005,0.0005,0,0,0,0,0,0,0.0182,0.018,0.0179,0.0178,0.0173,0.0165,0.0163,0.0165,0.0128,0.0123,0.0154,0.0152,0.0094,0.0087,0.0081,0.0076,0.005,0.0047,0.0046,0.0004,0.0005,0.0005,0,0,0,0,0,0,0.0182,0.0182,0.018,0.0178,0.0178,0.0165,0.0167,0.0165,0.0161,0.0127,0.012,0.0152,0.0093,0.0085,0.0062,0.0072,0.0046,0.0043,0.0004,0.0004,0.0005,0.0064,0,0,0,0,0,0,0.0182,0.0183,0.019,0.0179,0.0178,0.0183,0.0168,0.0165,0.0161,0.0159,0.0123,0.0115,0.0092,0.0066,0.0059,0.0068,0.0041,0.0003,0.0004,0.0005,0.0061,0.0066,0.0071,0,0,0,0,0,0.0182,0.02,0.0191,0.0191,0.0187,0.0183,0.0182,0.0171,0.0162,0.0165,0.0141,0.0116,0.0067,0.0064,0.0056,0.0064,0.0003,0.0004,0.0005,0.0059,0.0065,0.0071,0,0,0,0,0,0,0.0204,0.0198,0.0189,0.0203,0.0192,0.0179,0.0185,0.0173,0.0159,0.0157,0.012,0.0111,0.0094,0.0071,0.0069,0.0055,0.0032,0.0032,0.0076,0.0081,0.0086,0.0122,0.0039,0,0,0,0,0,0.0212,0.0222,0.0208,0.0218,0.0214,0.0198,0.0197,0.0189,0.0173,0.0166,0.014,0.0115,0.0094,0.0081,0.0058,0.005,0.0026,0.005,0.0055,0.0059,0.0083,0.005,0.0054,0.0009,0.0009,0.0009,0,0,0.0222,0.0221,0.0226,0.0223,0.0215,0.0228,0.0196,0.0198,0.0213,0.0158,0.0165,0.0127,0.0094,0.0086,0.0077,0.0068,0.0057,0.0061,0.0065,0.0086,0.0052,0.0056,0.006,0.001,0.001,0.001,0,0,0.0254,0.0246,0.0266,0.0262,0.0255,0.0251,0.0251,0.0237,0.0232,0.0229,0.0195,0.0169,0.0136,0.012,0.0106,0.0124,0.0081,0.0109,0.0165,0.0133,0.0136,0.0139,0.0106,0.0105,0.0115,0.0115,0.0116,0,0.0268,0.0292,0.0271,0.0288,0.0298,0.0264,0.0292,0.0285,0.0266,0.0269,0.0239,0.0198,0.016,0.0159,0.0165,0.0137,0.0109,0.0145,0.014,0.0142,0.0144,0.0109,0.0108,0.0118,0.0118,0.0118,0.0118,0,0.0313,0.0333,0.0343,0.036,0.0366,0.0381,0.0371,0.0374,0.0359,0.0347,0.0332,0.0278,0.026,0.0233,0.0205,0.0204,0.0175,0.0145,0.0127,0.0153,0.0113,0.0111,0.0123,0.0122,0.0121,0.012,0,0,0.0344,0.0373,0.0376,0.0407,0.0408,0.0426,0.0448,0.0463,0.0494,0.0445,0.0472,0.0411,0.0374,0.0358,0.0306,0.0273,0.0249,0.0223,0.022,0.0195,0.0174,0.0132,0.0124,0.0212,0.0213,0.0213,0.0137,0,0.0388,0.0451,0.0448,0.0512,0.0549,0.0533,0.0567,0.0574,0.0565,0.0579,0.0509,0.0506,0.0424,0.0415,0.0369,0.0287,0.0248,0.0273,0.015,0.0147,0.011,0.0122,0.0152,0.0086,0.0135,0.0134,0.0134,0,0.0435,0.0478,0.0552,0.0616,0.0629,0.0665,0.0723,0.0746,0.0745,0.0736,0.0703,0.0644,0.0595,0.0519,0.0389,0.0407,0.0305,0.0227,0.0221,0.0167,0.0101,0.007,0.008,0.013,0.013,0.013,0.0131,0,0.0491,0.0552,0.0624,0.0641,0.0702,0.0741,0.0776,0.0798,0.0846,0.0837,0.0866,0.0771,0.0752,0.0606,0.0431,0.0414,0.0281,0.0235,0.0098,0.0093,0.009,0.0085,0.0146,0.0146,0.0146,0.0146,0.0147,0,0.0549,0.0605,0.0662,0.0703,0.0813,0.0818,0.0924,0.0942,0.0985,0.1061,0.0956,0.0984,0.0775,0.0664,0.048,0.0286,0.0314,0.012,0.0076,0.0109,0.0107,0.0125,0.0123,0.0144,0.0144,0.0145,0.0145,0,0.0609,0.0633,0.0727,0.0807,0.0846,0.0927,0.1041,0.1113,0.1134,0.1232,0.1237,0.1158,0.1008,0.0777,0.0549,0.0374,0.0173,0.0093,0.0143,0.0106,-0.0006,-0.0004,-0.0056,-0.0058,-0.006,-0.0061,-0.0062,0,0.0645,0.0699,0.0816,0.0889,0.0935,0.105,0.114,0.1194,0.1277,0.1342,0.1399,0.1288,0.1222,0.0859,0.0523,0.0195,0.0156,0.0012,-0.0019,0.0013,-0.0024,-0.0019,-0.0015,-0.0005,-0.0006,-0.0006,-0.0007,0,0.0727,0.0764,0.085,0.0996,0.1103,0.1233,0.1358,0.1447,0.1519,0.1583,0.1634,0.1581,0.1254,0.092,0.0474,0.0255,0.0062,-0.0009,0.0022,0.0039,0.0054,0.0019,0.0024,-0.0011,-0.0011,-0.0011,-0.001,-0.001,0.0795,0.087,0.0976,0.1118,0.1241,0.1391,0.1497,0.1614,0.1742,0.1827,0.1788,0.1708,0.1363,0.0777,0.04,0.0011,0.0031,-0.0104,-0.0099,-0.0094,-0.0077,-0.0066,-0.0151,-0.0151,-0.0152,-0.0152,-0.0152,0,0.0882,0.0962,0.109,0.1254,0.1381,0.1437,0.1627,0.1708,0.184,0.1908,0.1919,0.1581,0.1222,0.082,0.0242,-0.0099,-0.0113,-0.0205,-0.0143,-0.0136,-0.013,-0.0112,-0.0197,-0.0198,-0.0199,-0.0201,0,0,0.0931,0.1061,0.1119,0.1334,0.1444,0.1609,0.1708,0.1818,0.1895,0.1922,0.1879,0.18,0.1336,0.0909,0.045,0.0122,0.0071,0.0058,0.0132,0.0268,0.0277,-0.0033,0.0007,0,0,0,0,0]}],[{"header":{"parameterUnit":"m.s-1","parameterCategory":2,"la1":30.2991,"la2":30.254,"lo1":-89.0895,"lo2":-89.0444,"dy":0.0017,"dx":0.0017,"nx":28,"ny":28,"refTime":"2024-04-11T21:00:00:Z","depth":"4","parameterNumber":2,"parameterNumberName":"U-component_of_CURRENTS"},"data":[0,0,0,0,0,0,0,0,0,0,0,0,0,0,0,0,0,0,0,0,0,0,0,0,0,0,0,0,0,0,0,0,0,0,0,0,0,0,0,0,0,0,0,0,0,0,0,0,0,0,0,0,0,0,0,0,0,0,0.1793,0.1793,0,0.184,0.184,0.1841,0.1894,0.1896,0.1897,0.1898,0.1985,0.1986,0.1987,0,0,0,0,0,0,0,0,0,0,0,0,0,0.1734,0.1734,0.1793,0.1794,0.1794,0.184,0.1841,0.1841,0.1894,0.1896,0.1897,0.1898,0.1984,0.1986,0.1987,0,0,0,0,0,0,0,0,0,0,0,0,0,0.1764,0.1734,0.1792,0.183,0.1834,0.184,0.1841,0.1841,0.1894,0.1896,0.1897,0.1899,0.1984,0.1986,0.1987,0.1964,0,0,0.1993,0.1994,0,0,0,0,0,0,0,0,0.1763,0.1766,0.1823,0.1827,0.1832,0.1867,0.1852,0.1885,0.1893,0.1867,0.1898,0.19,0.195,0.1955,0.1954,0.1968,0.1972,0.1993,0.1994,0.1995,0.1996,0,0,0,0,0,0,0,0.176,0.1764,0.1807,0.1824,0.1829,0.1839,0.1845,0.1858,0.1896,0.1869,0.1874,0.1885,0.1953,0.1952,0.1956,0.1973,0.1993,0.1995,0.1996,0.1997,0.2118,0.212,0,0,0,0,0,0,0.1761,0.1762,0.1806,0.1809,0.1805,0.1839,0.1846,0.185,0.1895,0.1904,0.1884,0.1888,0.1948,0.1954,0.196,0.2058,0.1995,0.1997,0.1998,0.2116,0.2118,0.2121,0,0,0,0,0,0,0.176,0.1764,0.1804,0.179,0.1797,0.1839,0.1843,0.1851,0.1894,0.1906,0.1916,0.1926,0.1949,0.1957,0.2022,0.2058,0.1998,0.2,0.2113,0.2117,0.212,0.2176,0,0,0,0,0,0,0.1757,0.1763,0.178,0.179,0.1798,0.183,0.1843,0.185,0.1898,0.1904,0.1945,0.1952,0.1951,0.2019,0.2023,0.2059,0.2001,0.2111,0.2115,0.2119,0.2172,0.2181,0.2189,0,0,0,0,0,0.1755,0.1765,0.178,0.1786,0.1814,0.1831,0.1836,0.1868,0.1899,0.1915,0.1962,0.1953,0.2047,0.2022,0.2027,0.2064,0.2109,0.2114,0.2118,0.2168,0.2179,0.2189,0,0,0,0,0,0,0.1747,0.1772,0.1788,0.1807,0.183,0.1842,0.187,0.1891,0.1937,0.1966,0.1978,0.1988,0.2061,0.2056,0.2028,0.2113,0.2077,0.2083,0.2113,0.2124,0.2132,0.2133,0.2003,0,0,0,0,0,0.1752,0.1773,0.1792,0.1812,0.183,0.1859,0.1878,0.1903,0.1938,0.1962,0.1991,0.2032,0.2074,0.2096,0.2126,0.2165,0.2178,0.2194,0.2202,0.2209,0.2216,0.2289,0.2304,0.2136,0.2136,0.2136,0,0,0.1759,0.1775,0.179,0.1814,0.1841,0.1868,0.1876,0.192,0.1957,0.1964,0.2037,0.2069,0.2095,0.215,0.218,0.2155,0.2262,0.2216,0.2221,0.2224,0.2295,0.2311,0.2326,0.214,0.2139,0.2138,0,0,0.1767,0.1798,0.1815,0.1838,0.1884,0.1903,0.1926,0.1964,0.2001,0.2067,0.209,0.2146,0.2202,0.222,0.2239,0.2311,0.2313,0.2327,0.2362,0.2433,0.2447,0.246,0.2485,0.2499,0.2321,0.2322,0.2322,0,0.1775,0.1798,0.1823,0.1845,0.1879,0.1925,0.1957,0.1994,0.205,0.209,0.2109,0.2216,0.2235,0.2297,0.2326,0.233,0.2362,0.2317,0.2444,0.2457,0.2469,0.2491,0.2507,0.2325,0.2325,0.2324,0.2324,0,0.1787,0.1821,0.184,0.1887,0.192,0.1962,0.2013,0.2068,0.2132,0.2167,0.2266,0.2298,0.236,0.2373,0.2375,0.2463,0.2455,0.2453,0.2414,0.2489,0.2508,0.2523,0.233,0.2328,0.2327,0.2327,0,0,0.1762,0.1834,0.1844,0.187,0.1954,0.197,0.206,0.2133,0.2199,0.2268,0.2348,0.2418,0.2447,0.247,0.2477,0.2526,0.2629,0.2531,0.2533,0.2549,0.2774,0.2597,0.2596,0.2665,0.2668,0.2671,0.2747,0,0.1771,0.181,0.1856,0.1913,0.1943,0.2024,0.2096,0.2174,0.2259,0.2344,0.2405,0.2487,0.248,0.2524,0.2577,0.2631,0.2675,0.2607,0.2704,0.2706,0.2535,0.2609,0.2681,0.2758,0.2761,0.2764,0.2766,0,0.1759,0.1795,0.1851,0.1929,0.1954,0.2006,0.2134,0.2205,0.234,0.2415,0.2511,0.2559,0.265,0.2634,0.2762,0.273,0.2761,0.2784,0.2788,0.2613,0.2558,0.2673,0.2792,0.279,0.2788,0.2786,0.2785,0,0.1701,0.1779,0.1826,0.1856,0.1964,0.2023,0.2098,0.2235,0.2319,0.2469,0.2549,0.2655,0.2739,0.2805,0.2862,0.2839,0.2989,0.2958,0.2815,0.2802,0.2912,0.2897,0.3044,0.3044,0.3044,0.3044,0.3044,0,0.1663,0.1696,0.1808,0.1831,0.1913,0.2,0.2113,0.2211,0.2367,0.2461,0.2582,0.2663,0.28,0.2889,0.2908,0.2909,0.3036,0.2831,0.282,0.2931,0.2918,0.2921,0.2906,0.3047,0.3046,0.3046,0.3045,0,0.1566,0.1648,0.17,0.1829,0.1887,0.194,0.212,0.2191,0.2361,0.2491,0.2547,0.2727,0.2841,0.2925,0.3044,0.2961,0.2975,0.2939,0.3045,0.3038,0.2721,0.2709,0.2776,0.277,0.2766,0.2762,0.2759,0,0.1511,0.1535,0.1683,0.1742,0.1809,0.1924,0.2013,0.2184,0.2266,0.2499,0.2541,0.2717,0.2808,0.2833,0.2935,0.2952,0.2918,0.2888,0.2796,0.2716,0.27,0.2694,0.2688,0.2751,0.275,0.2749,0.2748,0,0.1417,0.1486,0.1548,0.1674,0.1769,0.1843,0.1977,0.2026,0.2219,0.2384,0.2484,0.2538,0.2662,0.2737,0.278,0.2781,0.2885,0.2839,0.2847,0.2761,0.2688,0.2675,0.2674,0.2732,0.2734,0.2736,0.2737,0,0.1367,0.138,0.1495,0.1586,0.1698,0.1731,0.1809,0.191,0.2015,0.2264,0.2297,0.2474,0.2649,0.2651,0.2686,0.2681,0.2628,0.2519,0.2542,0.2561,0.2453,0.2326,0.226,0,0,0,0,0,0.1308,0.1321,0.1402,0.1477,0.1572,0.1638,0.1779,0.1859,0.2045,0.2061,0.2176,0.2271,0.2342,0.2444,0.2394,0.2572,0.2625,0.2499,0.2508,0.2644,0.2663,0.2554,0,0,0,0,0,0,0.1272,0.1337,0.1363,0.138,0.1412,0.1484,0.1566,0.1683,0.1714,0.1918,0.1985,0.2127,0.2246,0.2355,0.2353,0.2377,0.2331,0.2615,0.2609,0.2634,0.2651,0.2665,0.2559,0,0,0,0,0]},{"header":{"parameterUnit":"m.s-1","parameterCategory":2,"la1":30.2991,"la2":30.254,"lo1":-89.0895,"lo2":-89.0444,"dy":0.0017,"dx":0.0017,"nx":28,"ny":28,"refTime":"2024-04-11T21:00:00:Z","depth":"4","parameterNumber":3,"parameterNumberName":"V-component_of_CURRENTS"},"data":[0,0,0,0,0,0,0,0,0,0,0,0,0,0,0,0,0,0,0,0,0,0,0,0,0,0,0,0,0,0,0,0,0,0,0,0,0,0,0,0,0,0,0,0,0,0,0,0,0,0,0,0,0,0,0,0,0,0,0.0284,0.0284,0,0.0272,0.0272,0.0272,0.0254,0.0254,0.0254,0.0254,0.0221,0.022,0.0219,0,0,0,0,0,0,0,0,0,0,0,0,0,0.0258,0.0259,0.0284,0.0284,0.0284,0.0272,0.0272,0.0272,0.0254,0.0254,0.0254,0.0254,0.0221,0.022,0.0219,0,0,0,0,0,0,0,0,0,0,0,0,0,0.0259,0.0259,0.0284,0.0275,0.0274,0.0272,0.0272,0.0272,0.0254,0.0254,0.0254,0.0254,0.0221,0.022,0.0219,0.0217,0,0,0.0216,0.0215,0,0,0,0,0,0,0,0,0.0259,0.0259,0.0276,0.0276,0.0275,0.0266,0.0251,0.0253,0.0255,0.026,0.0254,0.0254,0.0235,0.0233,0.0229,0.0215,0.0214,0.0215,0.0215,0.0214,0.0214,0,0,0,0,0,0,0,0.0259,0.026,0.0278,0.0276,0.0276,0.0261,0.026,0.0251,0.0247,0.026,0.0259,0.026,0.0234,0.023,0.0228,0.0213,0.0215,0.0214,0.0214,0.0213,0.0199,0.0199,0,0,0,0,0,0,0.0266,0.026,0.0278,0.0277,0.0268,0.0261,0.0261,0.0268,0.0248,0.0245,0.0261,0.026,0.0232,0.0229,0.0227,0.0233,0.0214,0.0213,0.0213,0.0199,0.0199,0.0199,0,0,0,0,0,0,0.0265,0.0268,0.0279,0.0269,0.027,0.0263,0.027,0.0268,0.0269,0.0249,0.0246,0.0265,0.0232,0.0228,0.0227,0.0231,0.0213,0.0212,0.0198,0.0199,0.0199,0.0239,0,0,0,0,0,0,0.0265,0.0268,0.0278,0.027,0.0271,0.0284,0.027,0.0268,0.0271,0.027,0.0252,0.0248,0.0231,0.0229,0.0226,0.0229,0.0211,0.0198,0.0199,0.0199,0.0237,0.0241,0.0244,0,0,0,0,0,0.0264,0.0278,0.0279,0.0281,0.0284,0.0285,0.0284,0.0276,0.0272,0.0276,0.0266,0.0249,0.023,0.0229,0.0225,0.0228,0.0198,0.0198,0.0199,0.0236,0.024,0.0243,0,0,0,0,0,0,0.0269,0.0278,0.0278,0.0294,0.0293,0.0283,0.0287,0.0283,0.0278,0.0278,0.0257,0.0253,0.0251,0.0236,0.0235,0.0225,0.0209,0.0209,0.0239,0.0242,0.0245,0.0251,0.021,0,0,0,0,0,0.0277,0.0292,0.0292,0.0304,0.0306,0.0299,0.0299,0.0296,0.0289,0.0287,0.0276,0.0262,0.025,0.0245,0.0233,0.0231,0.0196,0.0229,0.0232,0.0235,0.0237,0.0189,0.0188,0.0201,0.0201,0.0201,0,0,0.0282,0.0289,0.0297,0.0307,0.0305,0.0315,0.0298,0.0304,0.0313,0.0284,0.0293,0.0275,0.0253,0.025,0.0247,0.0238,0.0212,0.0236,0.0238,0.0239,0.0189,0.0188,0.0186,0.0202,0.0202,0.0202,0,0,0.0296,0.0306,0.0321,0.0325,0.0331,0.0331,0.0336,0.0333,0.0331,0.0337,0.0317,0.0301,0.0291,0.0271,0.026,0.0273,0.0231,0.0271,0.029,0.0244,0.0242,0.024,0.019,0.0183,0.0271,0.0271,0.0271,0,0.0299,0.0325,0.0324,0.0338,0.035,0.0341,0.0361,0.0358,0.0355,0.0355,0.0347,0.0317,0.0299,0.0283,0.0289,0.0279,0.0246,0.0279,0.0248,0.0245,0.0242,0.0191,0.0183,0.0273,0.0273,0.0273,0.0273,0,0.0322,0.0346,0.0354,0.0376,0.0385,0.0401,0.0402,0.041,0.0409,0.0399,0.0387,0.0355,0.0337,0.0325,0.0314,0.0289,0.0268,0.0258,0.0238,0.0243,0.0188,0.0179,0.0276,0.0275,0.0275,0.0274,0,0,0.0328,0.0365,0.037,0.0396,0.0412,0.0426,0.0441,0.0453,0.0466,0.0442,0.0443,0.041,0.0386,0.0371,0.0343,0.0302,0.0253,0.0279,0.0275,0.0228,0.0146,0.0137,0.0126,0.0238,0.0236,0.0235,0.0113,0,0.035,0.0397,0.0405,0.0453,0.0483,0.0484,0.0506,0.0511,0.0505,0.0502,0.045,0.0442,0.0405,0.0399,0.035,0.0286,0.0233,0.0287,0.0148,0.0143,0.0135,0.0117,0.0232,0.0106,0.0104,0.0102,0.0101,0,0.0374,0.0409,0.0463,0.0516,0.0527,0.0552,0.0589,0.0605,0.0588,0.0581,0.0544,0.0502,0.0445,0.0413,0.0282,0.032,0.0238,0.0175,0.0168,0.0141,0.0119,0.01,0.0084,0.0086,0.0087,0.0088,0.0089,0,0.0402,0.0451,0.0505,0.0521,0.0571,0.0597,0.0625,0.0631,0.0659,0.063,0.0633,0.0546,0.0518,0.0398,0.0266,0.0276,0.011,0.0104,0.0008,0.0006,0.0033,0.0036,-0.0003,-0.0003,-0.0003,-0.0002,-0.0002,0,0.0434,0.0477,0.0527,0.056,0.0633,0.0644,0.0708,0.0718,0.073,0.076,0.0681,0.067,0.0515,0.0402,0.0271,0.011,0.0106,0.0004,-0.0027,0.0052,0.0059,0.0025,0.003,-0.0007,-0.0006,-0.0005,-0.0004,0,0.0464,0.0493,0.056,0.0622,0.0655,0.0706,0.0789,0.0824,0.0828,0.086,0.0855,0.0765,0.0624,0.0443,0.0245,0.0132,-0.0033,-0.0094,-0.0006,-0.0029,-0.0108,-0.01,-0.0207,-0.0208,-0.0209,-0.021,-0.0211,0,0.0481,0.0519,0.0614,0.0665,0.0701,0.0784,0.0845,0.0882,0.0919,0.0916,0.0929,0.0809,0.0723,0.0434,0.0241,-0.0034,-0.0069,-0.0167,-0.0131,-0.011,-0.013,-0.0119,-0.011,-0.0213,-0.0213,-0.0213,-0.0214,0,0.0513,0.0547,0.061,0.072,0.0795,0.0884,0.0967,0.1005,0.1036,0.1036,0.0993,0.0841,0.0678,0.045,0.0227,0.0033,-0.0108,-0.0179,-0.0178,-0.0145,-0.0119,-0.0135,-0.0124,-0.0218,-0.0217,-0.0217,-0.0216,0,0.054,0.0583,0.0666,0.0765,0.0865,0.0951,0.0996,0.1041,0.1082,0.107,0.1053,0.0873,0.0773,0.0483,0.0279,0.0083,0.0044,-0.002,-0.0028,-0.0026,0.0064,0.0125,0.0069,0,0,0,0,0,0.0559,0.0611,0.0701,0.0804,0.0902,0.0965,0.1063,0.1092,0.1119,0.1102,0.1084,0.093,0.0643,0.0519,0.0325,0.0248,-0.0004,0.0011,-0.0084,-0.0239,-0.0235,-0.0161,0,0,0,0,0,0,0.0567,0.0655,0.07,0.0822,0.0893,0.1002,0.1069,0.1091,0.1085,0.1082,0.0939,0.087,0.0595,0.0753,0.0317,0.0257,0.0167,-0.012,-0.0125,-0.0242,-0.0238,-0.0234,-0.0157,0,0,0,0,0]}]]